This is the latest recevied weather packets stored in our database for station/object AJ7DN. If no packets are shown the sender has not sent any weather packets the latest 10 day(s).
| Time | Temp. | Humidity | Pressure | Rain* | Wind** | Luminosity | Snow |
|---|---|---|---|---|---|---|---|
| 1777599135 | 26.67° C | 34% | 1018.1 hPa | 0 mm | - | 33 W/m² | - |
| 1777598834 | 27.22° C | 32% | 1018.1 hPa | 0 mm | - | 38 W/m² | - |
| 1777598534 | 27.22° C | 31% | 1018 hPa | 0 mm | - | 39 W/m² | - |
| 1777598229 | 27.22° C | 33% | 1018.4 hPa | 0 mm | - | 39 W/m² | - |
| 1777597927 | 27.22° C | 33% | 1018.2 hPa | 0 mm | - | 41 W/m² | - |
| 1777597627 | 27.78° C | 31% | 1018.1 hPa | 0 mm | - | 42 W/m² | - |
| 1777597322 | 27.78° C | 31% | 1018.3 hPa | 0 mm | - | 42 W/m² | - |
| 1777597018 | 28.33° C | 31% | 1018.1 hPa | 0 mm | - | 120 W/m² | - |
| 1777596715 | 29.44° C | 29% | 1018.3 hPa | 0 mm | - | 199 W/m² | - |
| 1777596412 | 28.89° C | 28% | 1018.2 hPa | 0 mm | - | 211 W/m² | - |
| 1777596109 | 28.33° C | 27% | 1018.4 hPa | 0 mm | - | 255 W/m² | - |
| 1777595804 | 30° C | 27% | 1018.6 hPa | 0 mm | - | 232 W/m² | - |
| 1777595500 | 29.44° C | 26% | 1018.6 hPa | 0 mm | - | 242 W/m² | - |
| 1777595197 | 29.44° C | 27% | 1018.5 hPa | 0 mm | - | 263 W/m² | - |
| 1777594892 | 28.89° C | 29% | 1018.6 hPa | 0 mm | - | 299 W/m² | - |
| 1777594589 | 28.89° C | 28% | 1018.4 hPa | 0 mm | - | 306 W/m² | - |
| 1777594285 | 28.89° C | 28% | 1018.5 hPa | 0 mm | - | 317 W/m² | - |
| 1777593982 | 28.89° C | 28% | 1018.7 hPa | 0 mm | - | 312 W/m² | - |
| 1777593678 | 28.89° C | 28% | 1018.5 hPa | 0 mm | - | 333 W/m² | - |
| 1777593374 | 28.89° C | 27% | 1018.5 hPa | 0 mm | - | 358 W/m² | - |
| 1777593073 | 30° C | 27% | 1018.8 hPa | 0 mm | - | 383 W/m² | - |
| 1777592772 | 30° C | 26% | 1018.6 hPa | 0 mm | - | 391 W/m² | - |
| 1777592468 | 29.44° C | 27% | 1018.8 hPa | 0 mm | - | 345 W/m² | - |
| 1777592163 | 29.44° C | 27% | 1018.9 hPa | 0 mm | - | 344 W/m² | - |
| 1777591861 | 30° C | 26% | 1019 hPa | 0 mm | - | 375 W/m² | - |
* Rain latest hour (hover to see other rain measurements)
** Current wind speed in m/s (hover to see current wind gust speed)